Regional Weather Roundup
Issued by NWS

Home | Current Version | Previous Version | Graphics & Text | Print | Product List | Glossary On
Versions: 1 2 3 4 5 6 7 8 9 10 11 12 13 14 15 16 17 18 19 20 21 22 23 24 25 26 27 28 29 30 31 32 33 34 35 36 37 38 39 40 41 42 43 44 45 46 47 48 49 50
704
ASUS45 KBOU 231807
RWRCO

WEATHER ROUNDUP FOR COLORADO
NATIONAL WEATHER SERVICE DENVER/BOULDER CO
1100 AM MST MON JAN 23 2017

NOTE: "FAIR" INDICATES FEW OR NO CLOUDS BELOW 12000 FEET WITH NO
SIGNIFICANT WEATHER AND/OR OBSTRUCTIONS TO VISIBILITY.

COZ001>005-013-030-031-231900-
...NORTHWEST COLORADO...

CITY           SKY/WX    TMP DP  RH WIND       PRES   REMARKS
CRAIG          CLOUDY    38  24  57 CALM      29.62F
HAYDEN         PTSUNNY   30  23  74 E7        29.62F WCI  23
MEEKER         PTSUNNY   38  27  64 SW13      29.63F
MOUNT WERNER   NOT AVBL
STEAMBOAT SPGS CLOUDY    26  22  85 CALM      29.62F
WALDEN           N/A     30  23  74 S16       29.62F WCI  19
$$

COZ006>008-011-231900-
...WEST CENTRAL VALLEYS...

CITY           SKY/WX    TMP DP  RH WIND       PRES   REMARKS
GRAND JUNCTION PTSUNNY   47  32  56 S18G26    29.66F
MONTROSE       FAIR      46  27  47 SW29G44   29.70F
EAGLE          LGT RAIN  30  27  86 CALM      29.68F
RIFLE          LGT SNOW  36  33  89 N3        29.67F FOG
DELTA          CLOUDY    42  33  72 N7        29.72F
NUCLA          CLOUDY    41  28  60 SW16G29   29.76F
$$

COZ017>023-064>068-231900-
...SOUTHWEST COLORADO...

CITY           SKY/WX    TMP DP  RH WIND       PRES   REMARKS
DURANGO        CLOUDY    28  23  81 SE3       29.87F
CORTEZ         CLOUDY    36  28  73 S16G24    29.82F
PAGOSA SPRINGS CLOUDY    27  26  94 S5        29.88F WCI  22
TELLURIDE      NOT AVBL
WOLF CREEK PAS CLOUDY    12  12 100 S23G35    29.81F WCI  -7
$$

COZ009-010-012-014-032>034-037-058>063-231900-
...CENTRAL COLORADO...

CITY           SKY/WX    TMP DP  RH WIND       PRES   REMARKS
ASPEN          FLURRIES  32  27  81 SE6       29.65F WCI  26
BUENA VISTA    LGT SNOW  30  20  67 SE13      29.70F WCI  20
COPPER MTN     NOT AVBL
BERTHOUD PASS  CLOUDY    12   3  67 MISG      29.63F
COTTONWOOD PAS SNOW      27  25  93 SE5G29    29.69F VSB 1/2 WCI  21
GUNNISON       CLOUDY    25  17  72 W6        29.74F WCI  18
KREMMLING      CLOUDY    36  30  80 SW8       29.67F
LEADVILLE      LGT SNOW  23  18  81 CALM      29.65F
MONARCH PASS   CLOUDY    18  14  86 MISG      29.78F
SALIDA         PTSUNNY   37  20  49 S13G21    29.78F
SUNLIGHT         N/A     21  19  93 SW17G37   29.69F WCI   7
WILKERSON PASS CLOUDY   N/A N/A N/A SW12G20   29.71F
$$

COZ069>075-231900-
...SAN LUIS VALLEY/SANGRE DE CRISTO MOUNTAINS...

CITY           SKY/WX    TMP DP  RH WIND       PRES   REMARKS
ALAMOSA        FAIR      32  27  81 S26G43    29.80F WCI  18
LA VETA PASS   CLOUDY    27  21  80 NE24G52   29.74F WCI  12
SAGUACHE       FAIR      27  18  69 CALM      29.78F
$$

COZ035-036-038>040-231900-
...NORTHERN COLORADO FRONT RANGE...

CITY           SKY/WX    TMP DP  RH WIND       PRES   REMARKS
DENVER INTL AP FAIR      50  21  32 SW18      29.59F
DMNS CITY PARK   N/A     51  20  29 E10       29.59F
AURORA         MOSUNNY   49  21  33 SW16      29.60F
FRONT RANGE AP MOSUNNY   50  25  37 SW14G20   29.60F
ERIE MUNI ARPT FAIR      49  20  31 NE6       29.60F
BOULDER MUN AP CLOUDY    48  23  37 CALM      29.59F
CENTENNIAL     FAIR      47  21  35 SW20      29.61F
BROOMFIELD     MOSUNNY   48  21  34 E5        29.61F
FORT COLLINS   NOT AVBL
LONGMONT       CLOUDY    47  25  41 E3        29.61F
$$

COZ041-046-047-076>085-087-088-231900-
...PIKES PEAK/PALMER DIVIDE AND SOUTHERN FOOTHILLS...

CITY           SKY/WX    TMP DP  RH WIND       PRES   REMARKS
COLO. SPRINGS  FAIR      49  16  26 SW23      29.67F
A. F. ACADEMY  FAIR      49  13  23 VRB5G18   29.64F
SCHRIEVER AFB  NOT AVBL
ELLICOTT       FAIR     N/A N/A N/A SW17G28   29.67F
FALCON         FAIR      47  15  27 SW22G28   29.68F
FORT CARSON    NOT AVBL
LIMON          FAIR      53  21  28 SW16G28   29.60F
MONUMENT HILL  FAIR      43  19  39 SW17G30   29.66F
TRINIDAD       FAIR      44  24  45 SW20      29.74F
$$

COZ042>045-048>051-090-091-231900-
...NORTHEAST COLORADO...

CITY           SKY/WX    TMP DP  RH WIND       PRES   REMARKS
GREELEY ARPT   FAIR      36  23  59 NE6       29.62F
AKRON          FAIR      42  18  37 NW12      29.61F
BURLINGTON     FAIR      50  30  46 SW12      29.62F
WRAY           NOT AVBL
STERLING       FAIR      37  27  65 SW5       29.62F
HOLYOKE        FAIR      41  28  60 W3        29.63F
FORT MORGAN    FAIR      39  24  53 N3        29.62F
$$

COZ086-089-092>099-231900-
...SOUTHEAST COLORADO...

CITY           SKY/WX    TMP DP  RH WIND       PRES   REMARKS
PUEBLO         FAIR      54  24  31 SW20G25   29.68F
LA JUNTA       FAIR      50  29  44 CALM      29.67F
LAMAR          FAIR      50  28  42 W13       29.65F
SPRINGFIELD      N/A     60  21  22 W21G33    29.69F
$$




USA.gov is the U.S. government's official web portal to all federal, state and local government web resources and services.